Location: Annerveenschekanaal
(53.0776°N, 6.8027°E)
Time: 09:15:43
(UTC+00:00)

Daily predictions for brighter satellites

Satellite Brightness Start Highest point End
(mag) Time Altitude Azimuth Time Altitude Azimuth Time Altitude Azimuth
Cosmos 2082 4.1 20:39:46 10° SW 20:45:22 70° NW 20:51:00 10° NNE
Okean 3 Rocket 3.6 20:41:18 10° N 20:45:48 77° ENE 20:50:12 10° SSE
Cosmos 2227 4.3 20:40:48 10° SSW 20:46:28 66° ESE 20:52:12 10° NE
Cosmos 724 4.3 20:40:42 10° NW 20:46:33 90° ENE 20:52:21 10° SE
Helios 1A Rocket 3.7 20:44:55 10° N 20:47:53 40° WNW 20:50:50 10° SW
Meteor 2-20 Rocket 4.5 20:43:06 10° S 20:48:55 86° W 20:55:02 10° N
CZ-4 R/B 4.1 20:47:19 10° WSW 20:49:00 13° W 20:50:42 10° WNW
Cosmos 2263 Rocket 3.9 20:44:28 10° WSW 20:49:38 38° NW 20:54:51 10° NNE
Ariane Rocket 3.1 20:45:04 10° SSE 20:50:08 79° ENE 20:55:14 10° NNW
IRS-1C Rocket 4.2 20:45:26 10° SSE 20:50:42 79° ENE 20:55:59 10° NNW
Okean-O 3.6 20:47:10 10° S 20:51:21 44° W 20:55:34 10° NNW
Cosmos 1805 Rocket 3.8 20:47:47 10° N 20:52:04 58° ENE 20:56:20 10° SSE
Cosmos 1340 Rocket 2.7 20:51:42 10° NNW 20:55:30 88° W 20:59:13 10° S
Cosmos 1408 Rocket 3.7 20:51:52 10° N 20:56:14 64° ENE 21:00:37 10° SSE
NOSS 3-2 (A) 3.3 20:52:11 10° SSW 20:57:07 55° SE 21:03:05 10° NE
Cosmos 1603 4.1 20:51:48 10° NW 20:57:29 64° WSW 21:03:06 10° SSE
USA 215 3.3 20:51:44 10° ESE 20:58:17 84° SSW 21:04:52 10° WNW
Cosmos 1842 Rocket 3.8 20:54:37 10° SSW 20:59:03 79° W 21:03:32 10° N
Cosmos 773 Rocket 4.2 20:56:27 10° SSW 21:01:35 76° WNW 21:06:48 10° NNE
Cosmos 1743 Rocket 4.1 20:59:24 10° N 21:03:35 47° ENE 21:07:46 10° SSE
Cosmos 1703 4.0 21:04:34 10° SSE 21:07:13 25° E 21:09:55 10° NE
USA 245 3.6 21:04:10 10° S 21:07:47 49° WSW 21:10:45 10° NNW
Cosmos 1844 Rocket 2.7 21:03:19 10° SSW 21:08:53 89° SE 21:14:29 10° NNE
GEOS 3 Rocket 4.4 21:05:57 10° ESE 21:11:08 51° NNE 21:16:21 10° NW
SL-14 R/B 3.3 21:08:09 10° SSW 21:11:52 75° WNW 21:15:36 10° N
CZ-4C R/B 4.1 21:07:35 10° WNW 21:13:50 35° WSW 21:21:18 10° S
Cosmos 1553 Rocket 4.1 21:08:37 10° S 21:14:55 65° E 21:21:09 10° NNE
Cosmos 1833 Rocket 3.0 21:11:42 10° NNW 21:17:19 61° NE 21:22:54 10° SE
Cosmos 1151 Rocket 3.0 21:15:17 10° S 21:19:35 71° E 21:23:56 10° NNE
Cosmos 2082 Rocket 4.1 21:17:40 10° NNW 21:22:14 24° NE 21:26:47 10° E
CZ-2C R/B 1.9 21:23:48 13° S 21:26:13 78° WSW 21:28:59 10° NNW
Cosmos 1953 2.6 21:23:09 10° N 21:26:38 45° ENE 21:29:35 13° SE
SL-24 R/B - RUBIN 2 3.6 21:24:55 10° SW 21:29:24 83° NW 21:33:47 10° NE
Cosmos 1844 4.0 21:24:18 10° SW 21:30:05 75° NW 21:35:55 10° NNE
CZ-4B R/B 4.1 21:25:16 10° S 21:30:14 55° W 21:35:22 10° NNW
Cosmos 2278 Rocket 4.2 21:29:23 10° ESE 21:31:03 11° E 21:32:44 10° ENE
Okean O Rocket 3.8 21:27:49 10° SW 21:31:03 20° W 21:34:19 10° NW
Cosmos 1633 Rocket 3.8 21:30:19 10° N 21:34:29 41° ENE 21:38:07 13° SE
NOSS 3-2 (C) 3.5 21:33:45 10° SSW 21:38:34 45° ESE 21:44:18 10° NE
Cosmos 1461 4.3 21:39:53 10° WNW 21:42:31 20° WSW 21:45:06 10° SSW
NOSS 2-3 (C) 4.2 21:42:37 15° SSE 21:44:28 23° ESE 21:47:21 10° ENE
Cosmos 1745 Rocket 4.1 21:39:06 10° N 21:45:23 80° E 21:51:04 13° SSE
Cosmos 2056 Rocket 4.5 21:43:42 10° NNW 21:48:31 39° NE 21:53:17 10° ESE
Helios 1A 3.4 21:50:51 10° NNE 21:54:37 42° E 21:57:27 16° SSE
GP-B 3.6 21:52:39 10° N 21:56:58 58° W 22:01:15 10° SSW
Cosmos 2344 4.0 21:50:01 10° S 21:57:04 38° ESE 22:03:35 10° NE
Helios 1B rocket 2.6 21:57:42 16° SE 22:00:12 45° ENE 22:03:33 10° N
Iridium 4 Rocket 3.7 21:55:06 10° S 22:00:32 77° W 22:05:34 10° N
ARIANE 5 R/B 3.5 21:59:12 13° SE 22:02:50 41° ENE 22:07:01 10° N
SWARM A 4.3 22:00:06 10° N 22:03:20 72° W 22:05:43 17° S
Cosmos 1470 Rocket 3.9 22:01:58 10° N 22:06:22 56° ENE 22:09:41 17° SSE
Cosmos 1420 Rocket 4.0 22:03:47 10° NNW 22:09:03 87° ENE 22:13:10 16° SSE
Okean 2 4.3 22:07:04 17° SE 22:09:20 30° E 22:12:45 10° NNE
NOSS 2-3 (D) 3.2 22:07:57 10° SSW 22:11:35 59° SE 22:15:25 10° NE
ALOS 2 3.3 22:11:55 15° SE 22:15:20 45° ENE 22:19:32 10° N
Cosmos 1538 Rocket 4.0 22:11:48 10° SSW 22:16:59 81° ESE 22:22:15 10° NNE
Cosmos 2315 Rocket 4.1 22:13:37 14° S 22:18:58 71° E 22:25:10 10° NNE
Cosmos 1943 Rocket 3.1 22:16:33 17° SSE 22:20:09 33° ESE 22:25:07 10° NE
CENTAUR R/B 4.1 22:14:42 10° W 22:20:44 44° NNW 22:28:18 10° NE
Meteor 1-21 4.3 22:18:13 16° S 22:22:41 63° E 22:28:17 10° NNE
Cosmos 923 Rocket 4.4 22:21:16 17° S 22:25:04 47° ESE 22:30:03 10° NE
CZ-2C R/B 4.2 22:21:59 10° NNE 22:26:33 50° E 22:29:46 19° S
Cosmos 1328 Rocket 3.5 22:24:40 16° SSW 22:28:11 86° W 22:32:33 10° N
Lacrosse 5 rocket 1.8 22:30:44 22° S 22:32:02 28° SE 22:35:06 10° ENE
Cosmos 1666 Rocket 4.2 22:30:06 10° NNW 22:34:19 48° W 22:37:29 16° SSW
CZ-2C R/B 3.7 22:31:43 10° SE 22:36:22 36° ENE 22:41:07 10° N
USA 81 4.3 22:31:48 10° N 22:37:03 62° E 22:40:53 18° SSE
NOSS 2-3 (E) 3.2 22:35:30 10° SW 22:39:09 83° NW 22:43:08 10° NE
Cosmos 1371 Rocket 4.0 22:34:22 10° NNW 22:39:40 82° ENE 22:43:38 18° SSE
PSLV R/B 4.3 22:37:24 10° NNE 22:41:50 43° E 22:44:44 20° SSE
USA 215 4.0 22:37:29 17° SSE 22:41:52 36° SW 22:47:50 10° WNW
Cosmos 1869 Rocket 4.2 22:41:35 10° N 22:45:45 46° ENE 22:48:44 18° SE
NOSS 3-2 (A) 4.4 22:42:46 10° WSW 22:48:01 49° NNW 22:54:27 10° NE
GEOS 3 Rocket 4.0 22:45:16 18° SSE 22:49:06 53° SW 22:54:24 10° NW
S3M 4.4 22:48:41 10° SSW 22:54:36 58° WNW 23:00:41 10° N
MetOp-A 4.0 22:53:36 17° SE 22:56:22 47° ENE 23:00:04 10° N
NOSS 2-1 (D) 4.3 22:55:58 21° SE 22:56:28 21° SE 22:58:57 10° ENE
Cosmos 2154 Rocket 4.2 22:50:50 10° N 22:57:01 65° ENE 23:01:51 17° SSE
Cosmos 2184 Rocket 4.1 22:51:48 10° N 22:58:03 71° ENE 23:02:54 18° SSE
ARGOS Delta rocket 4.2 22:52:38 10° N 22:58:03 78° WNW 23:02:18 16° SSW
Cosmos 1515 Rocket 3.5 22:55:38 21° S 22:58:32 82° E 23:02:53 10° NNE
NOSS 2-1 (C) 4.5 22:59:06 19° SE 22:59:30 20° SE 23:01:53 10° ENE
Cosmos 1833 Rocket 3.9 22:56:03 10° NW 23:00:55 30° WSW 23:04:36 15° SSW
Cosmos 1953 4.3 22:58:51 10° NW 23:01:12 17° W 23:03:33 10° SW
USA 59 Rocket 0.4 23:01:29 24° SSE 23:02:14 27° SE 23:04:53 10° ENE
Spot 4 4.1 22:59:30 20° S 23:02:46 62° WSW 23:07:35 10° NNW
Cosmos 1733 Rocket 4.3 23:01:53 10° N 23:05:46 32° ENE 23:09:08 13° SE
Cosmos 2082 Rocket 2.2 23:01:30 10° NNW 23:07:11 82° ENE 23:11:52 15° SE
SAR-Lupe-2 3.3 23:05:52 25° SSE 23:07:34 74° ENE 23:10:49 10° NNW
Okean 3 3.3 23:09:18 23° S 23:11:38 73° E 23:15:39 10° NNE
Cosmos 2278 Rocket 2.4 23:09:54 19° S 23:13:56 59° ESE 23:19:30 10° NE
Cosmos 1331 Rocket 4.0 23:14:19 10° NNW 23:19:29 77° ENE 23:23:34 16° SSE
Okean 1-7 4.4 23:20:00 15° SE 23:22:31 27° E 23:26:05 10° NNE
Cosmos 1400 Rocket 3.1 23:20:00 10° NNW 23:23:35 48° W 23:25:30 24° SSW
COSMOS 2406 3.7 23:19:47 10° NNW 23:25:27 60° NE 23:31:04 10° SE
CZ-2C R/B 3.3 23:20:19 10° NNE 23:25:56 68° ESE 23:29:38 20° S
Cosmos 1680 Rocket 3.5 23:22:43 16° SSW 23:26:54 82° WNW 23:32:09 10° NNE
Cosmos 494 Rocket 4.0 23:24:38 18° SSW 23:28:38 89° ESE 23:33:56 10° NNE
NOSS 3-2 (C) 4.1 23:24:00 10° WSW 23:29:16 54° NNW 23:35:45 10° NE
Cosmos 2056 Rocket 4.2 23:25:50 10° NW 23:30:35 40° WSW 23:33:39 20° SSW
Helios 1B rocket 4.1 23:31:35 13° SW 23:33:21 17° W 23:35:44 10° NW
NOSS 2-3 (C) 4.1 23:30:58 10° WSW 23:34:18 47° NNW 23:38:05 10° NE
Cosmos 1048 Rocket 4.3 23:31:19 21° S 23:34:39 54° ESE 23:39:47 10° NNE
Cosmos 1812 2.4 23:34:16 10° NNW 23:35:32 25° WNW 23:35:32 25° WNW
Cosmos 1328 3.9 23:35:16 25° SSE 23:37:05 52° E 23:40:34 10° NNE
ACS3 Solar Sail 2.2 23:33:33 10° NNE 23:39:03 46° E 23:43:11 18° SSE
ARIANE 5 R/B 3.9 23:36:34 17° SW 23:39:15 29° W 23:43:10 10° NNW
Lacrosse 4 Rocket 3.9 23:38:20 10° NNW 23:41:43 23° NNE 23:45:04 10° E
USA 238 DEB 3.5 23:36:16 13° SW 23:41:56 76° SE 23:48:49 10° NE
USA 238 3.5 23:36:31 13° SW 23:42:09 76° SE 23:49:02 10° NE
BREEZE-M DEB (TANK) 3.3 23:37:37 10° W 23:49:48 63° SSW 23:53:41 10° ESE
ALOS 2 4.0 23:49:18 16° SW 23:51:52 26° W 23:55:34 10° NW
Cosmos 1441 Rocket 3.4 23:54:17 22° SW 23:56:05 47° WNW 23:59:15 10° N
